Location: Bishop�s Knoyle
(51.0728°N, 2.1714°W)
Time: 11:09:56
(UTC+00:00)

Nauka - Pass Details

Date: 04 October 2021
Orbit: 417 x 423 km, 51.6° (Epoch: 19 October)

Event Time Altitude Azimuth Distance (km) Brightness Sun altitude
Rises 19:05:54 0° 282° (WNW) 2,366 ? -14.4°
Reaches altitude 10° 19:08:26 10° 263° (W) 1,499 ? -14.7°
Maximum altitude 19:10:48 18° 218° (SW) 1,100 ? -15.1°
Drops below altitude 10° 19:13:10 10° 173° (S) 1,494 ? -15.5°
Enters shadow 19:13:26 - 170° (S) 1,570 ? -15.5°
